Orlando, FL

9:46 PM EST on January 20, 2017 (GMT -0500)
Orlando International

Weather History for KMCO - August, 2013

Change the Weather History Date:

Thursday, August 15, 2013

  Actual Average Record
Temperature  
Mean Temperature 84 °F 83 °F  
Max Temperature 93 °F 92 °F 98 °F (1938)
Min Temperature 74 °F 74 °F 64 °F (1893)
Degree Days  
Heating Degree Days 0 0  
Month to date heating degree days 0 0  
Since 1 June heating degree days 0 0  
Since 1 July heating degree days 0 0  
Cooling Degree Days 19 18  
Month to date cooling degree days 289 270  
Year to date cooling degree days 2199 2110  
Since 1 June cooling degree days 1327 1309  
Growing Degree Days 33 (Base 50)    
Moisture  
Dew Point 74 °F    
Average Humidity 75    
Maximum Humidity 100    
Minimum Humidity 49    
Precipitation  
Precipitation 0.00 in 0.23 in 1.72 in (1943)
Month to date precipitation 0.28 3.61  
Year to date precipitation 29.82 33.09  
Sea Level Pressure  
Sea Level Pressure 30.00 in    
Wind  
Wind Speed 4 mph (South)    
Max Wind Speed 10 mph    
Max Gust Speed 21 mph    
Visibility 10 miles    
Events Fog    
T = Trace of Precipitation, MM = Missing Value Source: NWS Daily Summary

Daily Weather History Graph

Daily Weather History Graph

Search for Another Location

Airport or City:

Trip Planner

Search our weather history database for the weather conditions in past years. The results will help you decide how hot, cold, wet, or windy it might be!

Date:

Astronomy

Aug. 15, 2013 Rise Set
Actual Time 6:54 AM EDT 8:04 PM EDT
Civil Twilight 6:30 AM EDT 8:28 PM EDT
Nautical Twilight 6:00 AM EDT 8:57 PM EDT
Astronomical Twilight 5:30 AM EDT 9:28 PM EDT
Moon 3:11 PM EDT (8/15) 1:10 AM EDT (8/15)
Length of Visible Light 13h 58m
Length of Day
13h 09m
Waxing Gibbous, 64% of the Moon is Illuminated
Aug 15
Waxing Gibbous
Aug 20
Full
Aug 28
Last Quarter
Sep 5
New
Sep 12
First Quarter

Hourly Weather History & Observations

Time (EDT) Temp. Heat Index Dew Point Humidity Pressure Visibility Wind Dir Wind Speed Gust Speed Precip Events Conditions
12:53 AM 77.0 °F - 75.0 °F 94% 30.03 in 10.0 mi Calm Calm - N/A   Scattered Clouds
1:53 AM 75.0 °F - 73.9 °F 96% 30.01 in 10.0 mi South 3.5 mph - N/A   Partly Cloudy
2:53 AM 75.9 °F - 75.0 °F 97% 29.99 in 10.0 mi SSW 3.5 mph - N/A   Scattered Clouds
3:53 AM 75.0 °F - 73.9 °F 96% 29.98 in 10.0 mi Calm Calm - N/A   Scattered Clouds
4:53 AM 75.9 °F - 73.9 °F 94% 29.98 in 10.0 mi Calm Calm - N/A   Partly Cloudy
5:53 AM 75.9 °F - 73.9 °F 94% 29.99 in 10.0 mi Calm Calm - N/A   Partly Cloudy
6:53 AM 75.0 °F - 73.9 °F 96% 30.00 in 10.0 mi Calm Calm - N/A Fog Shallow Fog
7:53 AM 77.0 °F - 75.0 °F 94% 30.01 in 10.0 mi Calm Calm - N/A   Scattered Clouds
8:53 AM 79.0 °F - 75.9 °F 90% 30.02 in 10.0 mi SSE 4.6 mph - N/A   Scattered Clouds
9:53 AM 82.0 °F 89.4 °F 75.9 °F 82% 30.03 in 10.0 mi Calm Calm - N/A   Scattered Clouds
10:53 AM 86.0 °F 96.0 °F 75.9 °F 72% 30.03 in 10.0 mi SSE 6.9 mph - N/A   Mostly Cloudy
11:53 AM 86.0 °F 95.1 °F 75.0 °F 70% 30.03 in 10.0 mi South 4.6 mph - N/A   Mostly Cloudy
12:53 PM 90.0 °F 99.0 °F 73.9 °F 59% 30.01 in 10.0 mi South 9.2 mph - N/A   Scattered Clouds
1:53 PM 90.0 °F 97.9 °F 73.0 °F 57% 29.99 in 10.0 mi South 6.9 mph - N/A   Mostly Cloudy
2:53 PM 91.9 °F 96.9 °F 69.1 °F 47% 29.97 in 10.0 mi Variable 4.6 mph 20.7 mph N/A   Mostly Cloudy
3:53 PM 93.0 °F 100.1 °F 71.1 °F 49% 29.95 in 10.0 mi SSW 8.1 mph - N/A   Mostly Cloudy
4:53 PM 91.9 °F 98.4 °F 71.1 °F 50% 29.94 in 10.0 mi SSW 10.4 mph - N/A   Mostly Cloudy
5:53 PM 88.0 °F 95.6 °F 73.0 °F 61% 29.95 in 10.0 mi South 10.4 mph - N/A   Mostly Cloudy
6:53 PM 86.0 °F 93.8 °F 73.9 °F 67% 29.96 in 10.0 mi South 8.1 mph - N/A   Mostly Cloudy
7:53 PM 84.0 °F 92.6 °F 75.9 °F 76% 29.99 in 10.0 mi SE 8.1 mph - N/A   Overcast
8:53 PM 82.0 °F 89.4 °F 75.9 °F 82% 30.02 in 10.0 mi SSE 5.8 mph - N/A   Overcast
9:53 PM 80.1 °F 85.4 °F 75.9 °F 87% 30.04 in 10.0 mi SE 3.5 mph - N/A   Mostly Cloudy
10:53 PM 81.0 °F 86.7 °F 75.0 °F 82% 30.06 in 10.0 mi NNW 3.5 mph - N/A   Scattered Clouds
11:53 PM 80.1 °F 85.4 °F 75.9 °F 87% 30.04 in 10.0 mi Calm Calm - N/A   Mostly Cloudy